DW0307 Weather Reports


time (UTC)temp
C
wind
direction
speed
KPH
gust
KPH
rain 1hr
cm
rain 24hr
cm
rain mn
cm
humidity
%
barometer
mb
20260507134544 16 219 20.9 33.8 0.00 0.05 0.05 68 1012.5
20260507133052 17 247 17.7 24.1 0.00 0.05 0.05 67 1012.2
20260507131600 17 240 12.9 22.5 0.00 0.05 0.05 67 1012.4
20260507130105 17 245 20.9 32.2 0.00 0.05 0.05 69 1012.4
20260507124552 18 233 12.9 24.1 0.00 0.05 0.05 65 1012.3
20260507123043 18 128 14.5 25.7 0.00 0.05 0.05 63 1012.0
20260507121602 18 205 14.5 25.7 0.00 0.05 0.05 64 1012.2
20260507120055 18 188 12.9 24.1 0.00 0.05 0.05 65 1012.5
20260507114604 17 167 14.5 27.4 0.00 0.05 0.05 66 1012.3
20260507113045 18 159 14.5 27.4 0.00 0.05 0.05 65 1012.5
20260507111544 18 217 20.9 32.2 0.00 0.05 0.05 64 1012.5
20260507110043 18 219 11.3 24.1 0.00 0.05 0.05 61 1012.2
20260507104543 19 192 17.7 29.0 0.00 0.05 0.05 60 1012.3
20260507103043 18 199 17.7 27.4 0.00 0.05 0.05 60 1012.1
20260507101546 19 214 12.9 24.1 0.00 0.05 0.05 60 1012.1
20260507100044 19 206 16.1 32.2 0.00 0.05 0.05 61 1012.1
20260507094544 18 200 14.5 32.2 0.00 0.05 0.05 63 1011.9
20260507093049 18 195 16.1 25.7 0.00 0.05 0.05 62 1012.0
20260507091552 17 213 22.5 32.2 0.00 0.05 0.05 61 1011.9
20260507090047 18 208 19.3 33.8 0.00 0.05 0.05 62 1011.7
20260507084547 18 217 20.9 30.6 0.00 0.05 0.05 62 1011.4
20260507083044 18 245 25.7 33.8 0.00 0.05 0.05 62 1011.4
20260507081548 18 240 24.1 33.8 0.00 0.05 0.05 63 1011.3
20260507080051 17 245 22.5 35.4 0.00 0.05 0.05 64 1011.5
20260507074600 17 216 22.5 33.8 0.00 0.05 0.05 64 1011.4
20260507073043 17 236 20.9 27.4 0.00 0.05 0.05 65 1011.3
20260507071543 17 242 12.9 22.5 0.00 0.05 0.05 69 1011.2
20260507070043 16 233 16.1 25.7 0.00 0.05 0.05 72 1011.2
20260507064550 15 234 14.5 27.4 0.00 0.05 0.05 73 1011.1
20260507063054 15 229 14.5 25.7 0.00 0.05 0.05 74 1011.0
20260507061544 15 222 12.9 22.5 0.00 0.05 0.05 77 1010.8
20260507060045 14 224 19.3 27.4 0.00 0.05 0.05 76 1010.9
20260507054604 14 221 12.9 22.5 0.00 0.05 0.05 77 1010.9
20260507053052 13 215 12.9 22.5 0.00 0.05 0.05 77 1010.6
20260507051542 13 217 12.9 27.4 0.00 0.05 0.05 77 1010.6
20260507050054 13 228 16.1 25.7 0.00 0.05 0.05 78 1010.6
20260507044549 13 211 14.5 25.7 0.00 0.05 0.05 79 1010.3
20260507043050 12 205 12.9 22.5 0.00 0.05 0.05 80 1010.2
20260507041548 12 219 12.9 19.3 0.00 0.05 0.05 80 1010.2
20260507040051 12 212 12.9 19.3 0.00 0.05 0.05 81 1010.2
20260507034555 12 238 9.7 16.1 0.00 0.05 0.05 81 1010.3
20260507033051 12 219 9.7 14.5 0.00 0.05 0.05 81 1010.4
20260507031605 12 214 11.3 17.7 0.00 0.05 0.05 80 1010.4
20260507030055 12 219 9.7 14.5 0.00 0.05 0.05 81 1010.6
20260507024553 12 215 9.7 16.1 0.00 0.05 0.05 80 1010.7
20260507023054 13 238 9.7 17.7 0.00 0.05 0.05 80 1010.8
20260507021547 13 231 11.3 17.7 0.00 0.05 0.05 81 1010.8
20260507020050 13 221 11.3 19.3 0.00 0.05 0.05 81 1011.0
20260507014550 13 213 14.5 24.1 0.00 0.05 0.05 82 1010.9
20260507013045 13 215 14.5 24.1 0.00 0.05 0.05 84 1010.8
20260507011549 13 215 12.9 24.1 0.00 0.05 0.05 84 1010.7
20260507010044 13 190 12.9 24.1 0.00 0.05 0.05 85 1010.1
20260507004544 12 193 12.9 17.7 0.00 0.05 0.05 84 1009.7
20260507003051 12 216 12.9 22.5 0.00 0.05 0.05 84 1009.9
20260507001551 13 216 16.1 24.1 0.00 0.05 0.05 84 1010.3
20260507000051 12 236 17.7 29.0 0.00 0.05 0.05 85 1010.2
20260506234550 13 233 22.5 30.6 0.05 0.05 0.05 84 1010.3
20260506233108 13 223 12.9 22.5 0.05 0.05 0.05 84 1010.6
20260506231556 13 232 19.3 37.0 0.05 0.05 0.05 83 1010.9
20260506230053 14 223 25.7 53.1 0.03 0.03 0.03 79 1010.9
20260506224546 16 242 30.6 40.2 0.00 0.00 0.00 71 1010.5
20260506223053 16 227 17.7 29.0 0.00 0.00 0.00 68 1010.2
20260506221553 16 248 14.5 30.6 0.00 0.00 0.00 67 1010.2
20260506220056 15 250 16.1 32.2 0.00 0.00 0.00 67 1010.2
20260506214552 15 219 9.7 25.7 0.00 0.00 0.00 66 1010.0
20260506213105 15 222 17.7 25.7 0.00 0.00 0.00 67 1010.0
20260506211550 15 221 14.5 27.4 0.00 0.00 0.00 68 1010.0
20260506210047 14 213 12.9 22.5 0.00 0.00 0.00 71 1010.1
20260506204551 13 214 8.0 17.7 0.00 0.00 0.00 73 1010.0
20260506203050 12 249 6.4 12.9 0.00 0.00 0.00 72 1010.1
20260506201547 13 258 8.0 12.9 0.00 0.00 0.00 70 1010.1
20260506200051 14 231 9.7 16.1 0.00 0.00 0.00 69 1010.1
20260506194555 14 223 8.0 12.9 0.00 0.00 0.00 70 1010.1
20260506193057 14 196 6.4 11.3 0.00 0.00 0.00 71 1010.2
20260506191544 13 206 1.6 4.8 0.00 0.00 0.00 71 1010.4
20260506190052 13 206 1.6 4.8 0.00 0.00 0.00 70 1010.4
20260506184550 14 206 3.2 4.8 0.00 0.00 0.00 68 1010.1
20260506183051 14 206 3.2 8.0 0.00 0.00 0.00 67 1010.1
20260506181549 15 205 3.2 8.0 0.00 0.00 0.00 64 1010.0
20260506174550 17 201 6.4 11.3 0.00 0.00 0.00 61 1009.9
20260506173043 17 210 6.4 17.7 0.00 0.00 0.00 60 1010.0
20260506171557 17 217 6.4 14.5 0.00 0.00 0.00 59 1009.8
20260506170103 18 215 9.7 16.1 0.00 0.00 0.00 58 1009.8
20260506164551 18 213 12.9 20.9 0.00 0.00 0.00 56 1009.9
20260506163111 19 221 14.5 35.4 0.00 0.00 0.00 54 1009.8
20260506161545 19 238 17.7 30.6 0.00 0.00 0.00 52 1010.0
20260506160056 19 225 20.9 33.8 0.00 0.00 0.00 53 1010.1
20260506154615 20 235 22.5 32.2 0.00 0.00 0.00 52 1010.1
20260506153117 20 228 20.9 30.6 0.00 0.00 0.00 51 1010.2
20260506151558 21 239 20.9 35.4 0.00 0.00 0.00 50 1010.1
20260506150055 21 219 17.7 38.6 0.00 0.00 0.00 48 1010.3
20260506144548 21 207 16.1 32.2 0.00 0.00 0.00 48 1010.1
20260506143101 21 188 20.9 35.4 0.00 0.00 0.00 47 1010.4
20260506141549 21 237 20.9 35.4 0.00 0.00 0.00 47 1010.3
20260506140049 22 212 22.5 35.4 0.00 0.00 0.00 47 1010.2